www.pogodaiklimat.ru
ПОГОДА в Уинслоу
Время
и дата
05:56 29.11
06:56 29.11
07:56 29.11
08:56 29.11
09:56 29.11
10:56 29.11
11:56 29.11
12:56 29.11
13:56 29.11
14:56 29.11
15:56 29.11
16:56 29.11
17:56 29.11
18:56 29.11
19:56 29.11
20:56 29.11
21:56 29.11
22:56 29.11
23:56 29.11
00:56 30.11
01:56 30.11
02:56 30.11
03:56 30.11
04:56 30.11
05:56 30.11
06:56 30.11
07:56 30.11
08:56 30.11
09:56 30.11
10:56 30.11
11:56 30.11
12:56 30.11
13:56 30.11
14:56 30.11
20:56 30.11
21:56 30.11
22:56 30.11
23:56 30.11
00:56 01.12
01:56 01.12
02:56 01.12
03:56 01.12
04:56 01.12
05:56 01.12
06:56 01.12
07:56 01.12
08:56 01.12
09:56 01.12
Ветер
(напр.,м/с)
Видим. Явления Облачность Т
(С)
Тd
(С)
f
(%)
Тe
(С)
Тes
(С)
Комфортность P
(гПа)
Po
(гПа)
Тmin
(С)
Tmax
(С)
R
(мм)
R24
(мм)
S
(см)
ЮЗ 7 16 км ясно +3.3 -2.8 64 -2 -2 1007.7 841.4
штиль 0 16 км ясно +4.4 -2.2 62 +4 +4 1009.0 842.6
З 6 16 км ясно +3.9 -1.7 67 -1 -1 1009.9 843.1
З 8 16 км ясно +7.8 -1.1 53 +3 +3 1010.7 844.0
З 7
{11}
16 км ясно +10.0 -1.7 44 +7 +7 1011.5 845.4
З 8 16 км 2/2 1440 м +11.7 -2.2 38 +9 +9 1011.9 846.0 +1.1 +11.7
З 7 16 км 2/2 1470 м +12.2 -3.3 34 +10 +11 1011.6 845.7
СЗ 7 16 км ясно +12.8 -4.4 30 +11 +12 1011.3 845.4
С 5 16 км ясно +13.3 -4.4 29 +12 +15 1011.3 845.4
СЗ 5 16 км ясно +12.8 -6.1 26 +11 +14 1012.0 846.0
С 5 16 км ясно +12.2 -10.6 19 +10 +12 1012.9 846.5
С 3 16 км ясно +10.6 -11.7 20 +9 +10 1013.9 847.1 +10.6 +13.3
штиль 0 16 км ясно +5.0 -12.2 28 +5 +5 1016.1 847.9
З 3 16 км ясно +0.6 -13.3 34 -3 -3 1017.7 848.5
ЮЗ 2 16 км ясно -1.1 -13.9 37 -4 -4 1019.0 849.1
СЗ 2 16 км ясно -0.6 -13.3 38 -3 -3 1018.7 849.6
Ю 3 16 км ясно -1.1 -13.3 39 -5 -5 1019.1 850.2
ЮВ 2 16 км ясно -1.7 -12.2 45 -5 -5 1019.4 850.5 -2.2 +10.6
ЮВ 2 16 км ясно -3.3 -11.7 52 -7 -7 1020.2 851.0
штиль 0 16 км ясно -3.3 -11.7 52 -4 -4 1020.0 851.0
ЮВ 3 16 км ясно -3.9 -11.1 57 -9 -9 1020.2 851.0
Ю 2 16 км ясно -6.1 -12.8 59 -10 -10 1020.9 851.3
ЮВ 2 16 км ясно -4.4 -11.1 59 -8 -8 1020.7 851.3
В 3 16 км ясно -5.6 -11.7 62 -11 -11 1021.0 851.0 -6.7 -1.7
ЮВ 3 16 км ясно -6.1 -12.2 62 -11 -11 1022.6 851.3
ЮВ 4 16 км ясно -3.3 -10.6 57 -9 -9 1023.2 851.6
ЮВ 3 16 км ясно -3.3 -10.0 60 -8 -8 1024.0 851.9
ЮВ 4 16 км ясно -1.1 -8.3 58 -6 -6 1023.3 851.9
В 4 16 км ясно +2.2 -8.3 46 -2 -1 1022.3 851.6
ЮВ 2 16 км ясно +3.3 -7.8 44 +1 +5 1021.8 851.3 -6.1 +3.3
штиль 0 16 км ясно +5.0 -6.7 42 +5 +12 1020.5 850.2
В 2 16 км ясно +8.3 -6.7 34 +7 +14 1018.2 849.1
нст 2 16 км ясно +11.1 -6.1 29 +11 +17 1016.5 847.9
штиль 0 16 км ясно +12.8 -5.6 27 +13 +20 1016.1 847.4
штиль 0 16 км ясно +1.1 -8.9 47 +1 +1 1019.1 848.8
ЮЗ 2 16 км ясно -1.1 -8.9 55 -4 -4 1019.1 849.1
штиль 0 16 км ясно -2.2 -8.9 60 -3 -3 1019.1 848.8 -2.2 +12.2
Ю 2 16 км ясно -2.8 -8.9 63 -6 -6 1018.8 848.8
штиль 0 16 км ясно -2.2 -8.3 63 -3 -3 1017.6 848.5
Ю 2 16 км ясно -2.2 -7.8 65 -6 -6 1017.0 848.5
ЮВ 3 16 км ясно -1.1 -7.2 63 -6 -6 1016.2 848.2
ЮВ 4 н/о ясно -1.1 -7.2 63 -6 -6 1016.1 848.5
ЮВ 3 н/о ясно -3.3 -7.8 71 -8 -8 1016.9 848.5 -3.9
ЮВ 3 н/о ясно -2.8 -8.3 66 -8 -8 1017.9 848.5
ЮВ 4 н/о ясно -2.2 -7.8 65 -8 -8 1018.9 848.8
ЮВ 3 н/о ясно -1.7 -7.2 66 -6 -6 1019.1 849.1
ЮВ 4 н/о ясно +2.8 -5.6 54 -1 -1 1018.6 849.1
ЮВ 5 н/о ясно +7.8 -3.9 43 +5 +5 1017.9 848.8
Местоположение метеостанции Winslow Municipal Airport: широта 35.0281 долгота -110.7208 высота над уровнем моря 1505 м.
В архиве по умолчанию представлена погода в Уинслоу за последние 1-2 суток. Обновление информации о фактической погоде в базе происходит ежечасно! Архивные данные за месяц целиком и за предыдущие месяцы Вы можете получить, выбрав интересующий диапазон дат из раскрывающегося списка и нажав кнопку "Ввод!".
Внимание! Архив погоды МЕТАР в базе сайта по станциям, не включенным в климатический монитор, хранится не более 60 дней. Нет смысла пытаться выбрать более раннюю дату.
*Определитесь, кто Вы:
Внимание! Время в таблицах - местное (без учета летнего времени). Для получения всемирного времени необходимо вычесть поправку, которая равна -7 ч.
Смотрите также архив погоды в соседних городах и на ближайших метеорологических станциях:
Партнеры нашего сайта:      
Пояснения к столбцам:
  • Ветер - указаны скорость ветра в м/с - средняя за 10 мин, порывы в срок и между сроками (в фигурных скобках) и направление, откуда дует ветер: С - северный,
  • СВ - северо-восточный, В - восточный, ЮВ - юго-восточный, Ю - южный, ЮЗ - юго-западный, З - западный, СЗ - северо-западный.
  • Видимость - горизонтальная дальность видимости в метрах или километрах. При видимости от 1 до 10 км при отсутствии осадков обычно наблюдается дымка, при ухудшении видимости до 1 км и менее - туман. В сухую погоду видимость может ухудшаться дымом, пылью или мглою.
  • Явления - указаны атмосферные явления, наблюдавшиеся в срок или в последний час перед сроком; фигурными скобками обозначены явления, наблюдавшиеся между сроками (за 1-3 часа до срока); квадратными скобками обозначены град или гололедные отложения с указанием их диаметра в мм.
  • Облачность - указаны через наклонную черту общая и нижняя облачность в баллах и высота нижней границы облаков в метрах; квадратными скобками обозначены формы облаков: Ci - перистые, Cs - перисто-слоистые, Cc - перисто-кучевые, Ac - высококучевые, As - высокослоистые, Sc - слоисто-кучевые, Ns - слоисто-дождевые, Cu - кучевые, Cb - кучево-дождевые. Подробнее классификацию облаков см. в Атласе облаков (PDF).
  • T - Температура воздуха - температура, измеренная на высоте 2 м над землей.
  • Td - Температура точки росы - температура, при понижении до которой содержащийся в воздухе водяной пар достигнет насыщения.
  • f - Относительная влажность воздуха - влажноcть воздуха, измеренная на высоте 2 м над землей.
  • Te - Эффективная температура - температура, которую ощущает одетый по сезону человек в тени. Характеристика душности погоды. При расчете учитывается влияние влажности воздуха и скорости ветра на теплоощущения человека.
  • Tes - Эффективная температура на солнце - температура, которую ощущает человек, с поправкой на солнечный нагрев. Характеристика знойности погоды. Зависит от высоты солнца над горизонтом, облачности и скорости ветра. Ночью, в пасмурную погоду, а также при ветре 12 м/с и более поправка равна нулю.
  • P - Атмосферное давление - приведенное к уровню моря атмосферное давление.
  • Po - Атмосферное давление - измеренное на уровне метеостанции атмосферное давление.
  • Tmin - Минимальная температура - минимум температуры воздуха на высоте 2 м над землей.
  • Tmax - Максимальная температура - максимум температуры воздуха на высоте 2 м над землей.
  • R - Количество осадков - Количество выпавших осадков за период времени, мм. При наведении курсора мыши на число - период времени, за который выпало указанное количество осадков.
  • R24 - Количество осадков - Количество выпавших осадков за 24 часа, мм.
  • S - Снежный покров - Высота снежного покрова, см. При наведении курсора мыши на число - состояние снежного покрова и степень покрытия местности в баллах.